Location: Ku?niki
(51.4449°N, 17.8974°E)
Time: 06:39:38
(UTC+00:00)

ATLAS 2AS CENTAUR R/B - Pass Details

Date: 18 September 2020
Orbit: 939 x 1273 km, 63.7° (Epoch: 19 October)

Event Time Altitude Azimuth Distance (km) Brightness Sun altitude
Exits shadow 22:59:05 - 274° (W) 3,413 5.3 -37.0°
Reaches altitude 10° 22:59:34 10° 275° (W) 3,267 5.2 -37.0°
Maximum altitude 23:06:53 38° 342° (NNW) 1,814 4.1 -36.9°
Drops below altitude 10° 23:13:57 10° 49° (NE) 3,148 5.6 -36.7°
Sets 23:16:53 0° 58° (ENE) 4,067 6.2 -36.7°
